Location: Fredericksburg
(30.2750°N, 98.8720°W)
Time: 23:20:15
(UTC-05:00)

ISS - All Passes

Search period start: 30 April 2017 00:00
Search period end: 10 May 2017 00:00
Orbit: 401 x 409 km, 51.6° (Epoch: 01 May)

Date Brightness Start Highest point End Pass type
(mag) Time Alt. Az. Time Alt. Az. Time Alt. Az.
30 Apr - 07:24:36 10° SW 07:27:48 59° NW 07:31:01 10° NE daylight
30 Apr - 13:58:50 10° NNE 13:59:38 11° NNE 14:00:25 10° NE daylight
30 Apr - 15:33:11 10° NW 15:36:25 67° SW 15:39:38 10° SE daylight
01 May - 06:32:35 10° SSW 06:35:46 56° SE 06:38:58 10° NE daylight
01 May - 08:11:09 10° WNW 08:12:30 12° NW 08:13:50 10° N daylight
01 May - 14:41:12 10° NNW 14:44:22 49° NE 14:47:32 10° ESE daylight
02 May - 05:41:09 10° S 05:43:50 23° SE 05:46:30 10° ENE visible
02 May - 07:17:40 10° W 07:20:14 21° NW 07:22:49 10° NNE daylight
02 May - 13:49:31 10° NNW 13:52:13 24° NE 13:54:55 10° E daylight
02 May - 15:26:06 10° WNW 15:28:35 20° SW 15:31:04 10° S daylight
03 May - 04:51:06 10° SE 04:51:55 11° SE 04:52:45 10° ESE visible
03 May - 06:24:57 10° WSW 06:28:04 42° NW 06:31:12 10° NNE visible
03 May - 12:58:19 10° N 12:59:58 13° NE 13:01:36 10° ENE daylight
03 May - 14:33:29 10° NW 14:36:37 47° SW 14:39:45 10° SSE daylight
04 May - 05:32:43 10° SW 05:35:58 79° SE 05:39:14 10° NE visible
04 May - 13:41:20 10° NW 13:44:35 69° NE 13:47:48 10° SE daylight
05 May - 04:41:00 10° SSW 04:43:57 32° SE 04:46:54 10° ENE visible
05 May - 06:18:14 10° W 06:20:28 17° NW 06:22:43 10° N visible
05 May - 12:49:31 10° NNW 12:52:26 30° NE 12:55:20 10° ESE daylight
05 May - 14:26:42 10° W 14:28:41 15° SW 14:30:40 10° SSW daylight
06 May - 03:50:06 10° SSE 03:51:59 14° SE 03:53:52 10° E visible
06 May - 05:25:15 10° WSW 05:28:13 32° NW 05:31:12 10° NNE visible
06 May - 11:58:02 10° N 12:00:10 16° NE 12:02:18 10° ENE daylight
06 May - 13:33:44 10° WNW 13:36:43 34° SW 13:39:40 10° SSE daylight
07 May - 04:32:48 10° SW 04:36:03 74° NW 04:39:19 10° NE visible
07 May - 12:41:24 10° NW 12:44:39 85° SW 12:47:54 10° SE daylight
08 May - 03:40:51 10° SSW 03:43:58 44° SE 03:47:06 10° ENE visible
08 May - 05:18:49 10° WNW 05:20:36 14° NW 05:22:24 10° N visible
08 May - 11:49:25 10° NNW 11:52:31 40° NE 11:55:35 10° ESE daylight
08 May - 13:27:34 10° WSW 13:28:39 11° SW 13:29:45 10° SW daylight
09 May - 02:49:31 10° S 02:51:57 19° SE 02:54:22 10° E night (unlit)
09 May - 04:25:31 10° W 04:28:17 25° NW 04:31:04 10° NNE visible
09 May - 10:57:45 10° NNW 11:00:15 20° NE 11:02:44 10° E daylight
09 May - 12:33:57 10° WNW 12:36:41 25° SW 12:39:24 10° S daylight
